�������l�o���
Date,Time,MP-1(��Sv/h),MP-2(��Sv/h),MP-3(��Sv/h),MP-4(��Sv/h),MP-5(��Sv/h),MP-6(��Sv/h),MP-7(��Sv/h),MP-8(��Sv/h),����,����(m/s),���J
2017/02/13,00:00,1.040,1.745,1.144,2.005,1.393,0.551,1.014,0.941,���k��,5.6,��
2017/02/13,00:10,1.037,1.746,1.145,2.006,1.394,0.553,1.014,0.941,���k��,4.7,��
2017/02/13,00:20,1.041,1.748,1.143,2.009,1.392,0.554,1.013,0.941,�k��,5.2,��
2017/02/13,00:30,1.041,1.741,1.145,2.004,1.392,0.554,1.015,0.944,�k��,5.7,��
2017/02/13,00:40,1.039,1.744,1.143,2.005,1.393,0.552,1.015,0.942,�k��,6.0,��
2017/02/13,00:50,1.040,1.744,1.144,2.007,1.396,0.552,1.016,0.942,�k��,5.0,��
2017/02/13,01:00,1.039,1.745,1.144,2.005,1.393,0.553,1.015,0.941,�k��,3.9,��
2017/02/13,01:10,1.039,1.747,1.144,2.006,1.393,0.551,1.016,0.942,�k��,5.0,��
2017/02/13,01:20,1.039,1.743,1.143,2.008,1.394,0.553,1.014,0.941,���k��,4.8,��
2017/02/13,01:30,1.039,1.743,1.143,2.006,1.392,0.553,1.015,0.942,�k��,5.0,��
2017/02/13,01:40,1.040,1.746,1.144,2.005,1.393,0.553,1.015,0.943,�k��,4.8,��
2017/02/13,01:50,1.039,1.744,1.143,2.005,1.394,0.552,1.012,0.941,���k��,4.5,��
2017/02/13,02:00,1.038,1.746,1.144,2.003,1.393,0.551,1.015,0.941,�k��,5.6,��
2017/02/13,02:10,1.037,1.743,1.141,2.004,1.392,0.553,1.015,0.940,���k��,5.6,��
2017/02/13,02:20,1.039,1.745,1.142,2.005,1.391,0.554,1.015,0.943,�k��,6.7,��
2017/02/13,02:30,1.039,1.744,1.144,2.007,1.393,0.552,1.014,0.941,�k��,5.2,��
2017/02/13,02:40,1.036,1.743,1.144,2.005,1.392,0.552,1.014,0.942,�k��,6.1,��
2017/02/13,02:50,1.040,1.745,1.143,2.006,1.391,0.553,1.014,0.941,�k��,6.5,��
2017/02/13,03:00,1.038,1.746,1.142,2.005,1.393,0.553,1.014,0.943,�k��,7.7,��
2017/02/13,03:10,1.040,1.745,1.143,2.003,1.394,0.554,1.015,0.942,�k�k��,3.1,��
2017/02/13,03:20,1.036,1.744,1.144,2.006,1.391,0.554,1.014,0.941,�k��,3.8,��
2017/02/13,03:30,1.037,1.743,1.143,2.005,1.393,0.552,1.014,0.943,�k��,3.7,��
2017/02/13,03:40,1.038,1.742,1.141,2.007,1.393,0.553,1.014,0.943,�k��,3.9,��
2017/02/13,03:50,1.037,1.744,1.144,2.004,1.392,0.554,1.012,0.942,�k��,6.8,��
2017/02/13,04:00,1.038,1.747,1.144,2.007,1.390,0.552,1.014,0.941,�k��,7.2,��
2017/02/13,04:10,1.039,1.744,1.141,2.004,1.389,0.552,1.012,0.944,���k��,6.8,��
2017/02/13,04:20,1.036,1.741,1.144,2.004,1.392,0.552,1.016,0.940,�k��,7.9,��
2017/02/13,04:30,1.039,1.744,1.143,2.007,1.390,0.553,1.016,0.940,�k��,7.3,��
2017/02/13,04:40,1.038,1.740,1.143,2.005,1.390,0.551,1.014,0.941,�k��,7.6,��
2017/02/13,04:50,1.037,1.744,1.143,2.005,1.393,0.551,1.013,0.942,�k��,6.6,��
2017/02/13,05:00,1.036,1.744,1.144,2.001,1.391,0.551,1.013,0.942,�k��,5.6,��
2017/02/13,05:10,1.037,1.742,1.142,2.004,1.391,0.551,1.014,0.942,�k��,5.7,��
2017/02/13,05:20,1.036,1.745,1.142,2.005,1.391,0.552,1.014,0.942,�k�k��,3.9,��
2017/02/13,05:30,1.038,1.743,1.143,2.001,1.391,0.552,1.013,0.942,�k�k��,4.6,��
2017/02/13,05:40,1.036,1.743,1.143,2.006,1.391,0.551,1.011,0.940,�k�k��,3.8,��
2017/02/13,05:50,1.035,1.742,1.142,2.000,1.390,0.551,1.013,0.942,�k��,1.9,��
2017/02/13,06:00,1.036,1.739,1.142,2.004,1.391,0.552,1.015,0.939,�k��,3.8,��
2017/02/13,06:10,1.035,1.739,1.142,2.004,1.389,0.552,1.012,0.940,���k��,4.6,��
2017/02/13,06:20,1.037,1.742,1.141,2.006,1.390,0.552,1.013,0.942,���k��,5.2,��
2017/02/13,06:30,1.034,1.743,1.143,2.001,1.388,0.552,1.013,0.941,���k��,4.5,��
2017/02/13,06:40,1.038,1.743,1.139,2.003,1.388,0.552,1.013,0.941,�k��,6.1,��
2017/02/13,06:50,1.036,1.741,1.141,2.007,1.390,0.551,1.012,0.941,�k��,6.5,��
2017/02/13,07:00,1.036,1.741,1.140,2.006,1.389,0.551,1.014,0.942,�k��,3.9,��
2017/02/13,07:10,1.037,1.743,1.140,2.006,1.388,0.552,1.014,0.942,�k��,2.0,��
2017/02/13,07:20,1.037,1.744,1.140,2.000,1.387,0.553,1.015,0.942,�k�k��,1.5,��
2017/02/13,07:30,1.036,1.742,1.136,2.004,1.388,0.552,1.015,0.939,�k,2.0,��
2017/02/13,07:40,1.035,1.743,1.140,2.006,1.388,0.552,1.013,0.941,�k�k��,1.4,��
2017/02/13,07:50,1.037,1.745,1.141,2.005,1.392,0.550,1.015,0.941,�k�k��,2.2,��
2017/02/13,08:00,1.036,1.746,1.143,2.008,1.388,0.553,1.014,0.942,�k�k��,1.1,��
2017/02/13,08:10,1.036,1.742,1.141,2.003,1.391,0.554,1.015,0.942,���쐼,1.1,��
2017/02/13,08:20,1.039,1.741,1.143,2.006,1.391,0.550,1.014,0.941,���쐼,1.2,��
2017/02/13,08:30,1.039,1.742,1.142,2.006,1.391,0.554,1.013,0.941,��쐼,1.5,��
2017/02/13,08:40,1.039,1.745,1.144,2.008,1.391,0.554,1.015,0.943,-,CALM,��
2017/02/13,08:50,1.039,1.746,1.144,2.008,1.394,0.552,1.016,0.943,���k��,1.5,��
2017/02/13,09:00,1.038,1.744,1.144,2.009,1.396,0.553,1.015,0.943,���k��,2.6,��
2017/02/13,09:10,1.041,1.746,1.144,2.009,1.393,0.551,1.015,0.943,��,3.4,��
2017/02/13,09:20,1.041,1.744,1.142,2.007,1.394,0.553,1.014,0.942,��,4.2,��
2017/02/13,09:30,1.038,1.747,1.142,2.006,1.394,0.554,1.015,0.942,�k��,5.1,��
2017/02/13,09:40,1.042,1.745,1.147,2.005,1.394,0.554,1.016,0.943,��,4.2,��
2017/02/13,09:50,1.044,1.748,1.143,2.005,1.394,0.553,1.014,0.944,���k��,3.9,��
2017/02/13,10:00,1.042,1.748,1.146,2.009,1.399,0.555,1.015,0.943,���k��,5.2,��
2017/02/13,10:10,1.040,1.746,1.145,2.009,1.397,0.553,1.013,0.942,��,4.0,��
2017/02/13,10:20,1.041,1.747,1.148,2.013,1.395,0.555,1.016,0.944,���k��,3.9,��
2017/02/13,10:30,1.044,1.750,1.145,2.009,1.398,0.555,1.015,0.943,���k��,2.6,��
2017/02/13,10:40,1.044,1.749,1.146,2.010,1.397,0.555,1.015,0.944,�k��,3.1,��
2017/02/13,10:50,1.044,1.749,1.148,2.008,1.396,0.555,1.017,0.943,�k�k��,3.9,��
2017/02/13,11:00,1.045,1.747,1.148,2.010,1.398,0.556,1.017,0.944,�k�k��,2.3,��
2017/02/13,11:10,1.046,1.746,1.147,2.012,1.397,0.555,1.014,0.943,��,1.4,��
2017/02/13,11:20,1.044,1.751,1.149,2.012,1.401,0.555,1.016,0.944,���쐼,2.5,��
2017/02/13,11:30,1.044,1.750,1.147,2.014,1.401,0.556,1.016,0.944,���k��,4.0,��
2017/02/13,11:40,1.046,1.746,1.147,2.012,1.400,0.556,1.015,0.942,�k��,4.5,��
2017/02/13,11:50,1.046,1.748,1.144,2.013,1.399,0.556,1.015,0.944,���k��,3.3,��
2017/02/13,12:00,1.050,1.749,1.146,2.010,1.401,0.556,1.014,0.945,���k��,3.7,��
2017/02/13,12:10,1.048,1.749,1.149,2.014,1.401,0.556,1.015,0.945,��,1.2,��
2017/02/13,12:20,1.048,1.750,1.150,2.015,1.405,0.554,1.013,0.945,��,3.8,��
2017/02/13,12:30,1.049,1.750,1.149,2.014,1.402,0.555,1.015,0.947,���k��,5.3,��
2017/02/13,12:40,1.050,1.747,1.150,2.016,1.403,0.556,1.017,0.946,��,5.1,��
2017/02/13,12:50,1.050,1.746,1.153,2.015,1.404,0.555,1.015,0.945,���k��,6.6,��
2017/02/13,13:00,1.049,1.747,1.152,2.014,1.403,0.555,1.016,0.946,�k��,5.4,��
2017/02/13,13:10,1.050,1.752,1.156,2.014,1.404,0.555,1.014,0.945,�k��,4.9,��
2017/02/13,13:20,1.050,1.751,1.153,2.014,1.402,0.555,1.016,0.944,��,6.8,��
2017/02/13,13:30,1.048,1.754,1.153,2.018,1.403,0.555,1.017,0.945,��,7.4,��
2017/02/13,13:40,1.051,1.751,1.153,2.013,1.402,0.557,1.015,0.946,��,6.3,��
2017/02/13,13:50,1.048,1.751,1.151,2.019,1.406,0.558,1.015,0.942,�k��,4.1,��
2017/02/13,14:00,1.048,1.750,1.153,2.021,1.406,0.557,1.017,0.942,���k��,4.3,��
2017/02/13,14:10,1.052,1.750,1.153,2.016,1.404,0.557,1.015,0.943,�k��,6.3,��
2017/02/13,14:20,1.050,1.751,1.152,2.017,1.403,0.555,1.016,0.942,�k�k��,5.5,��
2017/02/13,14:30,1.052,1.754,1.151,2.020,1.402,0.558,1.016,0.943,�k��,4.3,��
2017/02/13,14:40,1.051,1.754,1.152,2.018,1.405,0.559,1.016,0.940,�k��,6.6,��
2017/02/13,14:50,1.053,1.753,1.156,2.018,1.404,0.557,1.014,0.943,��,6.4,��
2017/02/13,15:00,1.050,1.759,1.151,2.018,1.405,0.558,1.016,0.942,��,7.7,��
2017/02/13,15:10,1.052,1.759,1.154,2.018,1.405,0.557,1.015,0.943,��,8.6,��
2017/02/13,15:20,1.050,1.757,1.155,2.019,1.406,0.559,1.016,0.943,��,8.7,��
2017/02/13,15:30,1.053,1.757,1.153,2.018,1.406,0.558,1.017,0.944,��,8.6,��
2017/02/13,15:40,1.053,1.758,1.154,2.019,1.405,0.557,1.015,0.946,��,6.2,��
2017/02/13,15:50,1.049,1.759,1.153,2.019,1.404,0.557,1.014,0.946,�k��,7.7,��
2017/02/13,16:00,1.051,1.757,1.150,2.018,1.406,0.557,1.015,0.944,���k��,7.4,��
2017/02/13,16:10,1.049,1.755,1.152,2.019,1.402,0.556,1.017,0.944,��,5.6,��
2017/02/13,16:20,1.050,1.758,1.151,2.019,1.404,0.555,1.018,0.944,��,6.4,��
2017/02/13,16:30,1.051,1.758,1.153,2.020,1.403,0.558,1.016,0.944,��,6.8,��
2017/02/13,16:40,1.050,1.760,1.153,2.017,1.404,0.557,1.017,0.945,��,6.8,��
2017/02/13,16:50,1.050,1.758,1.153,2.017,1.407,0.555,1.018,0.946,��,5.3,��
2017/02/13,17:00,1.049,1.761,1.153,2.018,1.405,0.555,1.017,0.944,���쐼,5.7,��
2017/02/13,17:10,1.049,1.756,1.152,2.017,1.405,0.558,1.017,0.944,��,5.3,��
2017/02/13,17:20,1.048,1.757,1.151,2.015,1.408,0.557,1.018,0.943,��,4.7,��
2017/02/13,17:30,1.048,1.756,1.152,2.014,1.407,0.558,1.017,0.943,��,3.7,��
2017/02/13,17:40,1.048,1.758,1.153,2.015,1.404,0.555,1.018,0.944,�k��,2.6,��
2017/02/13,17:50,1.049,1.756,1.150,2.015,1.404,0.556,1.016,0.943,�k��,2.0,��
2017/02/13,18:00,1.046,1.752,1.151,2.018,1.406,0.555,1.015,0.946,���k��,3.9,��
2017/02/13,18:10,1.046,1.756,1.150,2.015,1.405,0.556,1.016,0.943,���k��,3.2,��
2017/02/13,18:20,1.045,1.756,1.150,2.014,1.401,0.553,1.017,0.941,���k��,2.0,��
2017/02/13,18:30,1.047,1.756,1.150,2.016,1.406,0.557,1.017,0.943,��,2.2,��
2017/02/13,18:40,1.046,1.755,1.151,2.015,1.404,0.554,1.015,0.942,�k��,2.2,��
2017/02/13,18:50,1.046,1.755,1.151,2.015,1.407,0.554,1.014,0.944,�k��,3.0,��
2017/02/13,19:00,1.045,1.755,1.150,2.015,1.403,0.554,1.014,0.942,�k��,2.8,��
2017/02/13,19:10,1.048,1.757,1.147,2.013,1.404,0.555,1.016,0.945,�k�k��,2.0,��
2017/02/13,19:20,1.047,1.754,1.148,2.011,1.405,0.555,1.014,0.943,�k��,3.5,��
2017/02/13,19:30,1.046,1.752,1.149,2.015,1.405,0.554,1.012,0.942,�k��,3.9,��
2017/02/13,19:40,1.046,1.756,1.147,2.015,1.404,0.553,1.014,0.943,�k��,4.9,��
2017/02/13,19:50,1.045,1.753,1.149,2.012,1.406,0.556,1.015,0.943,�k��,5.5,��
2017/02/13,20:00,1.045,1.754,1.149,2.014,1.407,0.554,1.015,0.944,���k��,4.4,��
2017/02/13,20:10,1.047,1.754,1.149,2.013,1.407,0.554,1.015,0.943,���k��,3.8,��
2017/02/13,20:20,1.044,1.755,1.148,2.013,1.403,0.554,1.015,0.942,�k��,2.6,��
2017/02/13,20:30,1.047,1.754,1.146,2.011,1.402,0.555,1.016,0.941,�k�k��,3.1,��
2017/02/13,20:40,1.044,1.752,1.146,2.015,1.403,0.552,1.014,0.942,�k��,5.1,��
2017/02/13,20:50,1.045,1.751,1.146,2.013,1.404,0.553,1.014,0.943,�k��,4.5,��
2017/02/13,21:00,1.044,1.753,1.148,2.015,1.405,0.553,1.014,0.943,�k��,5.1,��
2017/02/13,21:10,1.044,1.756,1.144,2.014,1.403,0.553,1.014,0.945,�k��,4.9,��
2017/02/13,21:20,1.044,1.754,1.145,2.012,1.402,0.553,1.015,0.943,�k��,5.8,��
2017/02/13,21:30,1.044,1.756,1.148,2.014,1.400,0.553,1.015,0.943,�k��,5.9,��
2017/02/13,21:40,1.040,1.755,1.147,2.012,1.403,0.553,1.016,0.943,�k��,5.3,��
2017/02/13,21:50,1.040,1.755,1.148,2.014,1.405,0.553,1.015,0.943,�k�k��,2.9,��
2017/02/13,22:00,1.038,1.750,1.146,2.016,1.400,0.552,1.014,0.942,�k�k��,3.3,��
2017/02/13,22:10,1.038,1.753,1.146,2.012,1.400,0.553,1.014,0.941,�k��,5.5,��
2017/02/13,22:20,1.040,1.752,1.147,2.013,1.402,0.553,1.013,0.941,�k��,6.1,��
2017/02/13,22:30,1.038,1.753,1.147,2.015,1.402,0.552,1.014,0.943,�k��,6.1,��
2017/02/13,22:40,1.040,1.754,1.146,2.014,1.401,0.552,1.014,0.940,���k��,6.3,��
2017/02/13,22:50,1.038,1.749,1.145,2.015,1.402,0.553,1.015,0.941,�k��,7.0,��
2017/02/13,23:00,1.040,1.751,1.147,2.012,1.402,0.554,1.013,0.942,���k��,6.3,��
2017/02/13,23:10,1.039,1.753,1.147,2.011,1.402,0.553,1.012,0.943,�k��,4.0,��
2017/02/13,23:20,1.037,1.752,1.146,2.012,1.402,0.554,1.015,0.942,�k�k��,6.6,��
2017/02/13,23:30,1.040,1.756,1.147,2.013,1.402,0.553,1.013,0.942,�k��,6.4,��
2017/02/13,23:40,1.039,1.749,1.144,2.013,1.404,0.553,1.015,0.942,���k��,6.7,��
2017/02/13,23:50,1.040,1.751,1.146,2.014,1.403,0.552,1.014,0.941,���k��,5.8,��
